START_TIME,STEP,MOV.,P11,t_acc.,P23,t_acc.,P27,t_acc.,A4,t_acc.
1981-08-24 09:02:29.570 ,0,0,,0,,0,,0,,0
1981-08-24 09:02:34.370 ,0,0,0.,4.8,0.,4.8,0.,4.8,0.,4.8
1981-08-24 09:02:39.160 ,0,0,0.,4.8,0.,4.8,0.,4.8,0.,4.8
1981-08-24 09:02:43.970 ,0,0,0.,4.8,0.,4.8,0.,4.8,0.,4.8
1981-08-24 09:02:48.760 ,0,0,0.,4.8,0.,4.8,0.,4.8,0.,4.8
1981-08-24 09:02:48.160 ,1,0,0.,4.8,0.,4.8,0.,4.8,0.,4.8
1981-08-24 09:02:52.960 ,1,0,0.,4.8,0.,4.8,0.,4.8,0.,4.8
1981-08-24 09:02:57.770 ,1,0,0.,4.8,0.,4.8,0.,4.8,0.,4.8
1981-08-24 09:03:02.570 ,1,0,0.,4.8,0.,4.8,0.,4.8,0.,4.8
1981-08-24 09:03:07.370 ,1,0,0.,4.8,0.,4.8,0.,4.8,0.,4.8
1981-08-24 09:03:12.170 ,2,0,0.,4.8,0.,4.8,0.,4.8,0.,4.8
1981-08-24 09:03:16.970 ,2,0,0.,4.8,0.,4.8,0.,4.8,0.,4.8
1981-08-24 09:03:21.770 ,2,0,0.,4.8,0.,4.8,0.,4.8,0.,4.8
1981-08-24 09:03:26.570 ,2,0,0.,4.8,0.,4.8,0.,4.8,0.,4.8
1981-08-24 09:03:31.370 ,2,0,0.,4.8,0.,4.8,0.,4.8,0.,4.8
1981-08-24 09:03:36.170 ,3,0,0.,4.8,0.,4.8,0.,4.8,0.,4.8
1981-08-24 09:03:40.970 ,3,0,0.,4.8,0.,4.8,0.,4.8,0.,4.8
1981-08-24 09:03:45.770 ,3,0,0.,4.8,0.,4.8,0.,4.8,0.,4.8
1981-08-24 09:03:50.570 ,3,0,0.,4.8,0.,4.8,0.,4.8,0.,4.8
1981-08-24 09:03:55.370 ,3,0,0.,4.8,0.,4.8,0.,4.8,0.,4.8
1981-08-24 09:04:00.170 ,4,0,0.,4.8,0.,4.8,0.,4.8,0.,4.8
1981-08-24 09:04:04.970 ,4,0,0.,4.8,0.,4.8,0.,4.8,0.,4.8
1981-08-24 09:04:09.770 ,4,0,0.,4.8,0.,4.8,0.,4.8,0.,4.8
1981-08-24 09:04:14.570 ,4,0,0.,4.8,0.,4.8,0.,4.8,0.,4.8
1981-08-24 09:04:19.370 ,4,0,0.,4.8,0.,4.8,0.,4.8,0.,4.8
1981-08-24 09:04:24.170 ,5,0,0.,4.8,0.,4.8,0.,4.8,0.,4.8
1981-08-24 09:04:28.960 ,5,0,0.,4.8,0.,4.8,0.,4.8,0.,4.8
1981-08-24 09:04:33.770 ,5,0,0.,4.8,0.,4.8,0.,4.8,0.,4.8
1981-08-24 09:04:38.570 ,5,0,0.,4.8,0.,4.8,0.,4.8,0.,4.8
1981-08-24 09:04:43.370 ,5,0,0.,4.8,0.,4.8,0.,4.8,0.,4.8
1981-08-24 09:04:48.170 ,6,0,0.,4.8,0.,4.8,0.,4.8,0.,4.8
1981-08-24 09:04:52.960 ,6,0,0.,4.8,0.,4.8,0.,4.8,0.,4.8
1981-08-24 09:04:57.770 ,6,0,0.,4.8,0.,4.8,0.,4.8,0.,4.8
1981-08-24 09:05:02.570 ,6,0,0.,4.8,0.,4.8,0.,4.8,0.,4.8
1981-08-24 09:05:07.370 ,6,0,0.,4.8,0.,4.8,0.,4.8,0.,4.8
1981-08-24 09:05:12.170 ,7,0,0.,4.8,0.,4.8,0.,4.8,0.,4.8
1981-08-24 09:05:16.960 ,7,0,0.,4.8,0.,4.8,0.,4.8,0.,4.8
1981-08-24 09:05:21.770 ,7,0,0.,4.8,0.,4.8,0.,4.8,0.,4.8
1981-08-24 09:05:26.570 ,7,0,0.,4.8,0.,4.8,0.,4.8,0.,4.8
1981-08-24 09:05:31.370 ,7,0,0.,4.8,0.,4.8,0.,4.8,0.,4.8
1981-08-24 09:05:36.170 ,7,0,0.,4.8,0.,4.8,0.,4.8,0.,4.8
1981-08-24 09:05:40.960 ,7,0,0.,4.8,0.,4.8,0.,4.8,0.,4.8
1981-08-24 09:05:45.770 ,7,0,0.,4.8,0.,4.8,0.,4.8,0.,4.8
1981-08-24 09:05:50.570 ,7,0,0.,4.8,0.,4.8,0.,4.8,0.,4.8
1981-08-24 09:05:55.370 ,7,0,0.,4.8,0.,4.8,0.,4.8,0.,4.8
1981-08-24 09:06:00.170 ,7,0,0.,4.8,0.,4.8,0.,4.8,0.,4.8
1981-08-24 09:06:04.960 ,7,0,0.,4.8,0.,4.8,0.,4.8,0.,4.8
1981-08-24 09:06:09.770 ,7,0,0.,4.8,0.,4.8,0.,4.8,0.,4.8
1981-08-24 09:06:14.570 ,7,0,0.,4.8,0.,4.8,0.,4.8,0.,4.8
1981-08-24 09:06:19.370 ,7,0,0.,4.8,0.,4.8,0.,4.8,0.,4.8
1981-08-24 09:06:24.160 ,6,0,0.,4.8,0.,4.8,0.,4.8,0.,4.8
1981-08-24 09:06:28.960 ,6,0,0.,4.8,0.,4.8,0.,4.8,0.,4.8
1981-08-24 09:06:33.760 ,6,0,0.,4.8,0.,4.8,0.,4.8,0.,4.8
1981-08-24 09:06:38.560 ,6,0,0.,4.8,0.,4.8,0.,4.8,0.,4.8
1981-08-24 09:06:43.360 ,6,0,0.,4.8,0.,4.8,0.,4.8,0.,4.8
1981-08-24 09:06:48.160 ,6,0,0.,4.8,0.,4.8,0.,4.8,0.,4.8
1981-08-24 09:06:52.960 ,6,0,0.,4.8,0.,4.8,0.,4.8,0.,4.8
1981-08-24 09:06:57.760 ,6,0,0.,4.8,0.,4.8,0.,4.8,0.,4.8
1981-08-24 09:07:02.560 ,6,0,0.,4.8,0.,4.8,0.,4.8,0.,4.8
1981-08-24 09:07:07.360 ,6,0,0.,4.8,0.,4.8,0.,4.8,0.,4.8
1981-08-24 09:07:12.160 ,5,0,0.,4.8,0.,4.8,0.,4.8,0.,4.8
1981-08-24 09:07:16.960 ,5,0,0.,4.8,0.,4.8,0.,4.8,0.,4.8
1981-08-24 09:07:21.760 ,5,0,0.,4.8,0.,4.8,0.,4.8,0.,4.8
1981-08-24 09:07:26.560 ,5,0,0.,4.8,0.,4.8,0.,4.8,0.,4.8
1981-08-24 09:07:31.360 ,5,0,0.,4.8,0.,4.8,0.,4.8,0.,4.8
1981-08-24 09:07:36.160 ,5,0,0.,4.8,0.,4.8,0.,4.8,0.,4.8
1981-08-24 09:07:40.960 ,5,0,0.,4.8,0.,4.8,0.,4.8,0.,4.8
1981-08-24 09:07:45.760 ,5,0,0.,4.8,0.,4.8,0.,4.8,0.,4.8
1981-08-24 09:07:50.560 ,5,0,0.,4.8,0.,4.8,0.,4.8,0.,4.8
1981-08-24 09:07:55.360 ,5,0,0.,4.8,0.,4.8,0.,4.8,0.,4.8
1981-08-24 09:08:00.160 ,4,0,0.,4.8,0.,4.8,0.,4.8,0.,4.8
1981-08-24 09:08:04.960 ,4,0,0.,4.8,0.,4.8,0.,4.8,0.,4.8
1981-08-24 09:08:09.760 ,4,0,0.,4.8,0.,4.8,0.,4.8,0.,4.8
1981-08-24 09:08:14.560 ,4,0,0.,4.8,0.,4.8,0.,4.8,0.,4.8
1981-08-24 09:08:19.360 ,4,0,0.,4.8,0.,4.8,0.,4.8,0.,4.8
1981-08-24 09:08:24.160 ,4,0,0.,4.8,0.,4.8,0.,4.8,0.,4.8
1981-08-24 09:08:28.960 ,4,0,0.,4.8,0.,4.8,0.,4.8,0.,4.8
1981-08-24 09:08:33.760 ,4,0,0.,4.8,0.,4.8,0.,4.8,0.,4.8
1981-08-24 09:08:38.560 ,4,0,0.,4.8,0.,4.8,0.,4.8,0.,4.8
1981-08-24 09:08:43.360 ,4,0,0.,4.8,0.,4.8,0.,4.8,0.,4.8
1981-08-24 09:08:48.160 ,3,0,0.,4.8,0.,4.8,0.,4.8,0.,4.8
1981-08-24 09:08:52.960 ,3,0,0.,4.8,0.,4.8,0.,4.8,0.,4.8
1981-08-24 09:08:57.760 ,3,0,0.,4.8,0.,4.8,0.,4.8,0.,4.8
1981-08-24 09:09:02.560 ,3,0,0.,4.8,0.,4.8,0.,4.8,0.,4.8
1981-08-24 09:09:07.360 ,3,0,0.,4.8,0.,4.8,0.,4.8,0.,4.8
1981-08-24 09:09:12.160 ,3,0,0.,4.8,0.,4.8,0.,4.8,0.,4.8
1981-08-24 09:09:16.960 ,3,0,0.,4.8,0.,4.8,0.,4.8,0.,4.8
1981-08-24 09:09:21.760 ,3,0,0.,4.8,0.,4.8,0.,4.8,0.,4.8
1981-08-24 09:09:26.560 ,3,0,0.,4.8,0.,4.8,0.,4.8,0.,4.8
1981-08-24 09:09:31.360 ,3,0,0.,4.8,0.,4.8,0.,4.8,0.,4.8
1981-08-24 09:09:36.160 ,2,0,0.,4.8,0.,4.8,0.,4.8,0.,4.8
1981-08-24 09:09:40.960 ,2,0,0.,4.8,0.,4.8,0.,4.8,0.,4.8
1981-08-24 09:09:45.760 ,2,0,0.,4.8,0.,4.8,0.,4.8,0.,4.8
1981-08-24 09:09:50.560 ,2,0,0.,4.8,0.,4.8,0.,4.8,0.,4.8
1981-08-24 09:09:55.360 ,2,0,0.,4.8,0.,4.8,0.,4.8,0.,4.8
1981-08-24 09:10:00.160 ,2,0,0.,4.8,0.,4.8,0.,4.8,0.,4.8
1981-08-24 09:10:04.960 ,2,0,0.,4.8,0.,4.8,0.,4.8,0.,4.8
1981-08-24 09:10:09.760 ,2,0,0.,4.8,0.,4.8,0.,4.8,0.,4.8
1981-08-24 09:10:14.560 ,2,0,0.,4.8,0.,4.8,0.,4.8,0.,4.8
1981-08-24 09:10:19.360 ,2,0,0.,4.8,0.,4.8,0.,4.8,0.,4.8
1981-08-24 09:10:24.160 ,1,0,0.,4.8,0.,4.8,0.,4.8,0.,4.8
1981-08-24 09:10:28.960 ,1,0,0.,4.8,0.,4.8,0.,4.8,0.,4.8
1981-08-24 09:10:33.760 ,1,0,0.,4.8,0.,4.8,0.,4.8,0.,4.8
1981-08-24 09:10:38.560 ,1,0,0.,4.8,0.,4.8,0.,4.8,0.,4.8
1981-08-24 09:10:43.360 ,1,0,0.,4.8,0.,4.8,0.,4.8,0.,4.8
1981-08-24 09:10:48.160 ,1,0,0.,4.8,0.,4.8,0.,4.8,0.,4.8
1981-08-24 09:10:52.960 ,1,0,0.,4.8,0.,4.8,0.,4.8,0.,4.8
1981-08-24 09:10:57.760 ,1,0,0.,4.8,0.,4.8,0.,4.8,0.,4.8
1981-08-24 09:11:02.560 ,1,0,0.,4.8,0.,4.8,0.,4.8,0.,4.8
1981-08-24 09:11:07.360 ,1,0,0.,4.8,0.,4.8,0.,4.8,0.,4.8
1981-08-24 09:11:12.160 ,0,0,0.,4.8,0.,4.8,0.,4.8,0.,4.8
1981-08-24 09:11:16.960 ,0,0,0.,4.8,0.,4.8,0.,4.8,0.,4.8
1981-08-24 09:11:21.760 ,0,0,0.,4.8,0.,4.8,0.,4.8,0.,4.8
1981-08-24 09:11:26.560 ,0,0,0.,4.8,0.,4.8,0.,4.8,0.,4.8
1981-08-24 09:11:31.360 ,0,0,0.,4.8,0.,4.8,0.,4.8,0.,4.8
1981-08-24 09:11:36.160 ,0,0,0.,4.8,0.,4.8,0.,4.8,0.,4.8
1981-08-24 09:11:40.960 ,0,0,0.,4.8,0.,4.8,0.,4.8,0.,4.8
1981-08-24 09:11:45.760 ,0,0,0.,4.8,0.,4.8,0.,4.8,0.,4.8
1981-08-24 09:11:50.560 ,0,0,0.,4.8,0.,4.8,0.,4.8,0.,4.8
1981-08-24 09:11:55.360 ,0,0,0.,4.8,0.,4.8,0.,4.8,0.,4.8
1981-08-24 09:12:00.160 ,0,0,0.,4.8,0.,4.8,0.,4.8,0.,4.8
1981-08-24 09:12:04.960 ,0,0,0.,4.8,0.,4.8,0.,4.8,0.,4.8
1981-08-24 09:12:09.760 ,0,0,0.,4.8,0.,4.8,0.,4.8,0.,4.8
1981-08-24 09:12:14.560 ,0,0,0.,4.8,0.,4.8,0.,4.8,0.,4.8
1981-08-24 09:12:19.360 ,0,0,0.,4.8,0.,4.8,0.,4.8,0.,4.8
1981-08-24 09:12:24.160 ,0,0,0.,4.8,0.,4.8,0.,4.8,0.,4.8
1981-08-24 09:12:28.960 ,0,0,0.,4.8,0.,4.8,0.,4.8,0.,4.8
1981-08-24 09:12:33.760 ,0,0,0.,4.8,0.,4.8,0.,4.8,0.,4.8
1981-08-24 09:12:38.560 ,0,0,0.,4.8,0.,4.8,0.,4.8,0.,4.8
1981-08-24 09:12:43.360 ,0,0,0.,4.8,0.,4.8,0.,4.8,0.,4.8
1981-08-24 09:12:48.160 ,1,0,0.,4.8,0.,4.8,0.,4.8,0.,4.8
1981-08-24 09:12:52.960 ,1,0,0.,4.8,0.,4.8,0.,4.8,0.,4.8
1981-08-24 09:12:57.760 ,1,0,0.,4.8,0.,4.8,0.,4.8,0.,4.8
1981-08-24 09:13:02.560 ,1,0,0.,4.8,0.,4.8,0.,4.8,0.,4.8
1981-08-24 09:13:07.360 ,1,0,0.,4.8,0.,4.8,0.,4.8,0.,4.8
1981-08-24 09:13:12.160 ,1,0,0.,4.8,0.,4.8,0.,4.8,0.,4.8
1981-08-24 09:13:16.960 ,1,0,0.,4.8,0.,4.8,0.,4.8,0.,4.8
1981-08-24 09:13:21.760 ,1,0,0.,4.8,0.,4.8,0.,4.8,0.,4.8
1981-08-24 09:13:26.560 ,1,0,0.,4.8,0.,4.8,0.,4.8,0.,4.8
1981-08-24 09:13:31.360 ,1,0,0.,4.8,0.,4.8,0.,4.8,0.,4.8
1981-08-24 09:13:36.160 ,2,0,0.,4.8,0.,4.8,0.,4.8,0.,4.8
1981-08-24 09:13:40.960 ,2,0,0.,4.8,0.,4.8,0.,4.8,0.,4.8
1981-08-24 09:13:45.760 ,2,0,0.,4.8,0.,4.8,0.,4.8,0.,4.8
1981-08-24 09:13:50.560 ,2,0,0.,4.8,0.,4.8,0.,4.8,0.,4.8
1981-08-24 09:13:55.360 ,2,0,0.,4.8,0.,4.8,0.,4.8,0.,4.8
1981-08-24 09:14:00.160 ,2,0,0.,4.8,0.,4.8,0.,4.8,0.,4.8
1981-08-24 09:14:04.960 ,2,0,0.,4.8,0.,4.8,0.,4.8,0.,4.8
1981-08-24 09:14:09.760 ,2,0,0.,4.8,0.,4.8,0.,4.8,0.,4.8
1981-08-24 09:14:14.560 ,2,0,0.,4.8,0.,4.8,0.,4.8,0.,4.8
1981-08-24 09:14:19.360 ,2,0,0.,4.8,0.,4.8,0.,4.8,0.,4.8
1981-08-24 09:14:24.160 ,3,0,0.,4.8,0.,4.8,0.,4.8,0.,4.8
1981-08-24 09:14:28.960 ,3,0,0.,4.8,0.,4.8,0.,4.8,0.,4.8
1981-08-24 09:14:33.760 ,3,0,0.,4.8,0.,4.8,0.,4.8,0.,4.8
1981-08-24 09:14:38.560 ,3,0,0.,4.8,0.,4.8,0.,4.8,0.,4.8
1981-08-24 09:14:43.360 ,3,0,0.,4.8,0.,4.8,0.,4.8,0.,4.8
1981-08-24 09:14:48.160 ,3,0,0.,4.8,0.,4.8,0.,4.8,0.,4.8
1981-08-24 09:14:52.960 ,3,0,0.,4.8,0.,4.8,0.,4.8,0.,4.8
1981-08-24 09:14:57.760 ,3,0,0.,4.8,0.,4.8,0.,4.8,0.,4.8
1981-08-24 09:15:02.560 ,3,0,0.,4.8,0.,4.8,0.,4.8,0.,4.8
1981-08-24 09:15:07.360 ,3,0,0.,4.8,0.,4.8,0.,4.8,0.,4.8
1981-08-24 09:15:12.160 ,4,0,0.,4.8,0.,4.8,0.,4.8,0.,4.8
1981-08-24 09:15:16.960 ,4,0,0.,4.8,0.,4.8,0.,4.8,0.,4.8
1981-08-24 09:15:21.760 ,4,0,0.,4.8,0.,4.8,0.,4.8,0.,4.8
1981-08-24 09:15:26.560 ,4,0,0.,4.8,0.,4.8,0.,4.8,0.,4.8
1981-08-24 09:15:31.360 ,4,0,0.,4.8,0.,4.8,0.,4.8,0.,4.8
1981-08-24 09:15:36.160 ,4,0,0.,4.8,0.,4.8,0.,4.8,0.,4.8
1981-08-24 09:15:40.960 ,4,0,0.,4.8,0.,4.8,0.,4.8,0.,4.8
1981-08-24 09:15:45.760 ,4,0,0.,4.8,0.,4.8,0.,4.8,0.,4.8
1981-08-24 09:15:50.560 ,4,0,0.,4.8,0.,4.8,0.,4.8,0.,4.8
1981-08-24 09:15:55.360 ,4,0,0.,4.8,0.,4.8,0.,4.8,0.,4.8
1981-08-24 09:16:00.160 ,5,0,0.,4.8,0.,4.8,0.,4.8,0.,4.8
1981-08-24 09:16:04.960 ,5,0,0.,4.8,0.,4.8,0.,4.8,0.,4.8
1981-08-24 09:16:09.760 ,5,0,0.,4.8,0.,4.8,0.,4.8,0.,4.8
1981-08-24 09:16:14.560 ,5,0,0.,4.8,0.,4.8,0.,4.8,0.,4.8
1981-08-24 09:16:19.360 ,5,0,0.,4.8,0.,4.8,0.,4.8,0.,4.8
1981-08-24 09:16:24.160 ,5,0,0.,4.8,0.,4.8,0.,4.8,0.,4.8
1981-08-24 09:16:28.960 ,5,0,0.,4.8,0.,4.8,0.,4.8,0.,4.8
1981-08-24 09:16:33.760 ,5,0,0.,4.8,0.,4.8,0.,4.8,0.,4.8
1981-08-24 09:16:38.560 ,5,0,0.,4.8,0.,4.8,0.,4.8,0.,4.8
1981-08-24 09:16:43.360 ,5,0,0.,4.8,0.,4.8,0.,4.8,0.,4.8
1981-08-24 09:16:48.160 ,6,0,0.,4.8,0.,4.8,0.,4.8,0.,4.8
1981-08-24 09:16:52.960 ,6,0,0.,4.8,0.,4.8,0.,4.8,0.,4.8
1981-08-24 09:16:57.760 ,6,0,0.,4.8,0.,4.8,0.,4.8,0.,4.8
1981-08-24 09:17:02.560 ,6,0,0.,4.8,0.,4.8,0.,4.8,0.,4.8
1981-08-24 09:17:07.360 ,6,0,0.,4.8,0.,4.8,0.,4.8,0.,4.8
1981-08-24 09:17:12.160 ,6,0,0.,4.8,0.,4.8,0.,4.8,0.,4.8
1981-08-24 09:17:16.960 ,6,0,0.,4.8,0.,4.8,0.,4.8,0.,4.8
1981-08-24 09:17:21.760 ,6,0,0.,4.8,0.,4.8,0.,4.8,0.,4.8
1981-08-24 09:17:26.560 ,6,0,0.,4.8,0.,4.8,0.,4.8,0.,4.8
1981-08-24 09:17:31.360 ,6,0,0.,4.8,0.,4.8,0.,4.8,0.,4.8
1981-08-24 09:17:36.160 ,7,0,0.,4.8,0.,4.8,0.,4.8,0.,4.8
1981-08-24 09:17:40.960 ,7,0,0.,4.8,0.,4.8,0.,4.8,0.,4.8
1981-08-24 09:17:45.760 ,7,0,0.,4.8,0.,4.8,0.,4.8,0.,4.8
1981-08-24 09:17:50.560 ,7,0,0.,4.8,0.,4.8,0.,4.8,0.,4.8
1981-08-24 09:17:55.360 ,7,0,0.,4.8,0.,4.8,0.,4.8,0.,4.8
1981-08-24 09:18:00.160 ,7,0,0.,4.8,0.,4.8,0.,4.8,0.,4.8
1981-08-24 09:18:04.960 ,7,0,0.,4.8,0.,4.8,0.,4.8,0.,4.8
1981-08-24 09:18:09.760 ,7,0,0.,4.8,0.,4.8,0.,4.8,0.,4.8
1981-08-24 09:18:14.560 ,7,0,0.,4.8,0.,4.8,0.,4.8,0.,4.8
1981-08-24 09:18:19.360 ,7,0,0.,4.8,0.,4.8,0.,4.8,0.,4.8
1981-08-24 09:18:24.160 ,7,0,0.,4.8,0.,4.8,0.,4.8,0.,4.8
1981-08-24 09:18:28.960 ,7,0,0.,4.8,0.,4.8,0.,4.8,0.,4.8
1981-08-24 09:18:33.760 ,7,0,0.,4.8,0.,4.8,0.,4.8,0.,4.8
1981-08-24 09:18:38.560 ,7,0,0.,4.8,0.,4.8,0.,4.8,0.,4.8
1981-08-24 09:18:43.360 ,7,0,0.,4.8,0.,4.8,0.,4.8,0.,4.8
1981-08-24 09:18:48.160 ,6,0,0.,4.8,0.,4.8,0.,4.8,0.,4.8
1981-08-24 09:18:52.960 ,6,0,0.,4.8,0.,4.8,0.,4.8,0.,4.8
1981-08-24 09:18:57.760 ,6,0,0.,4.8,0.,4.8,0.,4.8,0.,4.8
1981-08-24 09:19:02.560 ,6,0,0.,4.8,0.,4.8,0.,4.8,0.,4.8
1981-08-24 09:19:07.360 ,6,0,0.,4.8,0.,4.8,0.,4.8,0.,4.8
1981-08-24 09:19:12.160 ,5,0,0.,4.8,0.,4.8,0.,4.8,0.,4.8
1981-08-24 09:19:16.960 ,5,0,0.,4.8,0.,4.8,0.,4.8,0.,4.8
1981-08-24 09:19:21.760 ,5,0,0.,4.8,0.,4.8,0.,4.8,0.,4.8
1981-08-24 09:19:26.560 ,5,0,0.,4.8,0.,4.8,0.,4.8,0.,4.8
1981-08-24 09:19:31.360 ,5,0,0.,4.8,0.,4.8,0.,4.8,0.,4.8
1981-08-24 09:19:36.160 ,4,0,0.,4.8,0.,4.8,0.,4.8,0.,4.8
1981-08-24 09:19:40.960 ,4,0,0.,4.8,0.,4.8,0.,4.8,0.,4.8
1981-08-24 09:19:45.760 ,4,0,0.,4.8,0.,4.8,0.,4.8,0.,4.8
1981-08-24 09:19:50.560 ,4,0,0.,4.8,0.,4.8,0.,4.8,0.,4.8
1981-08-24 09:19:55.360 ,4,0,0.,4.8,0.,4.8,0.,4.8,0.,4.8
1981-08-24 09:20:00.160 ,3,0,0.,4.8,0.,4.8,0.,4.8,0.,4.8
1981-08-24 09:20:04.960 ,3,0,0.,4.8,0.,4.8,0.,4.8,0.,4.8
1981-08-24 09:20:09.760 ,3,0,0.,4.8,0.,4.8,0.,4.8,0.,4.8
1981-08-24 09:20:14.560 ,3,0,0.,4.8,0.,4.8,0.,4.8,0.,4.8
1981-08-24 09:20:19.360 ,3,0,0.,4.8,0.,4.8,0.,4.8,0.,4.8
1981-08-24 09:20:24.160 ,2,0,0.,4.8,0.,4.8,0.,4.8,0.,4.8
1981-08-24 09:20:28.960 ,2,0,0.,4.8,0.,4.8,0.,4.8,0.,4.8
1981-08-24 09:20:33.760 ,2,0,0.,4.8,0.,4.8,0.,4.8,0.,4.8
1981-08-24 09:20:38.560 ,2,0,0.,4.8,0.,4.8,0.,4.8,0.,4.8
1981-08-24 09:20:43.360 ,2,0,0.,4.8,0.,4.8,0.,4.8,0.,4.8
1981-08-24 09:20:48.160 ,1,0,0.,4.8,0.,4.8,0.,4.8,0.,4.8
1981-08-24 09:20:52.960 ,1,0,0.,4.8,0.,4.8,0.,4.8,0.,4.8
1981-08-24 09:20:57.760 ,1,0,0.,4.8,0.,4.8,0.,4.8,0.,4.8
1981-08-24 09:21:02.560 ,1,0,0.,4.8,0.,4.8,0.,4.8,0.,4.8
1981-08-24 09:21:07.360 ,1,0,0.,4.8,0.,4.8,0.,4.8,0.,4.8
1981-08-24 09:21:12.160 ,0,0,0.,4.8,0.,4.8,0.,4.8,0.,4.8
1981-08-24 09:21:16.960 ,0,0,0.,4.8,0.,4.8,0.,4.8,0.,4.8
1981-08-24 09:21:21.760 ,0,0,0.,4.8,0.,4.8,0.,4.8,0.,4.8
1981-08-24 09:21:26.560 ,0,0,0.,4.8,0.,4.8,0.,4.8,0.,4.8
1981-08-24 09:21:31.360 ,0,0,0.,4.8,0.,4.8,0.,4.8,0.,4.8
1981-08-24 09:21:36.160 ,0,0,0.,4.8,0.,4.8,0.,4.8,0.,4.8
1981-08-24 09:21:40.960 ,0,0,0.,4.8,0.,4.8,0.,4.8,0.,4.8
1981-08-24 09:21:45.760 ,0,0,0.,4.8,0.,4.8,0.,4.8,0.,4.8
1981-08-24 09:21:50.560 ,0,0,0.,4.8,0.,4.8,0.,4.8,0.,4.8
1981-08-24 09:21:55.360 ,0,0,0.,4.8,0.,4.8,0.,4.8,0.,4.8
1981-08-24 09:22:00.160 ,1,0,0.,4.8,0.,4.8,0.,4.8,0.,4.8
1981-08-24 09:22:04.960 ,1,0,0.,4.8,0.,4.8,0.,4.8,0.,4.8
1981-08-24 09:22:09.760 ,1,0,0.,4.8,0.,4.8,0.,4.8,0.,4.8
1981-08-24 09:22:14.560 ,1,0,0.,4.8,0.,4.8,0.,4.8,0.,4.8
1981-08-24 09:22:19.360 ,1,0,0.,4.8,0.,4.8,0.,4.8,0.,4.8
1981-08-24 09:22:24.160 ,2,0,0.,4.8,0.,4.8,0.,4.8,0.,4.8
1981-08-24 09:22:28.960 ,2,0,0.,4.8,0.,4.8,0.,4.8,0.,4.8
1981-08-24 09:22:33.760 ,2,0,0.,4.8,0.,4.8,0.,4.8,0.,4.8
1981-08-24 09:22:38.560 ,2,0,0.,4.8,0.,4.8,0.,4.8,0.,4.8
1981-08-24 09:22:43.360 ,2,0,0.,4.8,0.,4.8,0.,4.8,0.,4.8
1981-08-24 09:22:48.160 ,3,0,0.,4.8,0.,4.8,0.,4.8,0.,4.8
1981-08-24 09:22:52.960 ,3,0,0.,4.8,0.,4.8,0.,4.8,0.,4.8
1981-08-24 09:22:57.760 ,3,0,0.,4.8,0.,4.8,0.,4.8,0.,4.8
1981-08-24 09:23:02.560 ,3,0,0.,4.8,0.,4.8,0.,4.8,0.,4.8
1981-08-24 09:23:07.360 ,3,0,0.,4.8,0.,4.8,0.,4.8,0.,4.8
1981-08-24 09:23:12.160 ,4,0,0.,4.8,0.,4.8,0.,4.8,0.,4.8
1981-08-24 09:23:16.960 ,4,0,0.,4.8,0.,4.8,0.,4.8,0.,4.8
1981-08-24 09:23:21.760 ,4,0,0.,4.8,0.,4.8,0.,4.8,0.,4.8
1981-08-24 09:23:26.560 ,4,0,0.,4.8,0.,4.8,0.,4.8,1.,4.8
1981-08-24 09:23:31.360 ,4,0,0.,4.8,0.,4.8,0.,4.8,0.,4.8
1981-08-24 09:23:36.160 ,5,0,0.,4.8,0.,4.8,0.,4.8,0.,4.8
1981-08-24 09:23:40.960 ,5,0,0.,4.8,0.,4.8,0.,4.8,0.,4.8
1981-08-24 09:23:45.760 ,5,0,0.,4.8,0.,4.8,0.,4.8,0.,4.8
1981-08-24 09:23:50.560 ,5,0,0.,4.8,0.,4.8,0.,4.8,0.,4.8
1981-08-24 09:23:55.360 ,5,0,0.,4.8,0.,4.8,0.,4.8,0.,4.8
1981-08-24 09:24:00.160 ,6,0,0.,4.8,0.,4.8,0.,4.8,0.,4.8
1981-08-24 09:24:04.960 ,6,0,0.,4.8,0.,4.8,0.,4.8,0.,4.8
1981-08-24 09:24:09.760 ,6,0,0.,4.8,0.,4.8,0.,4.8,0.,4.8
1981-08-24 09:24:14.560 ,6,0,0.,4.8,0.,4.8,0.,4.8,0.,4.8
1981-08-24 09:24:19.360 ,6,0,0.,4.8,0.,4.8,0.,4.8,0.,4.8
1981-08-24 09:24:24.160 ,7,0,0.,4.8,0.,4.8,0.,4.8,0.,4.8
1981-08-24 09:24:28.960 ,7,0,0.,4.8,0.,4.8,0.,4.8,0.,4.8
1981-08-24 09:24:33.760 ,7,0,0.,4.8,0.,4.8,0.,4.8,0.,4.8
1981-08-24 09:24:38.560 ,7,0,0.,4.8,0.,4.8,0.,4.8,0.,4.8
1981-08-24 09:24:43.360 ,7,0,0.,4.8,0.,4.8,0.,4.8,0.,4.8
1981-08-24 09:24:48.160 ,7,0,0.,4.8,0.,4.8,0.,4.8,0.,4.8
1981-08-24 09:24:52.960 ,7,0,0.,4.8,0.,4.8,0.,4.8,0.,4.8
1981-08-24 09:24:57.760 ,7,0,0.,4.8,0.,4.8,0.,4.8,0.,4.8
1981-08-24 09:25:02.560 ,7,0,0.,4.8,0.,4.8,0.,4.8,0.,4.8
1981-08-24 09:25:07.360 ,7,0,0.,4.8,0.,4.8,0.,4.8,0.,4.8
1981-08-24 09:25:12.160 ,7,0,0.,4.8,0.,4.8,0.,4.8,0.,4.8
1981-08-24 09:25:16.960 ,7,0,0.,4.8,0.,4.8,0.,4.8,0.,4.8
1981-08-24 09:25:21.760 ,7,0,0.,4.8,0.,4.8,0.,4.8,0.,4.8
1981-08-24 09:25:26.560 ,7,0,0.,4.8,0.,4.8,0.,4.8,0.,4.8
1981-08-24 09:25:31.360 ,7,0,0.,4.8,0.,4.8,0.,4.8,0.,4.8
1981-08-24 09:25:36.160 ,6,0,0.,4.8,0.,4.8,0.,4.8,0.,4.8
1981-08-24 09:25:40.960 ,6,0,0.,4.8,0.,4.8,0.,4.8,0.,4.8
1981-08-24 09:25:45.760 ,6,0,0.,4.8,0.,4.8,0.,4.8,0.,4.8
1981-08-24 09:25:50.560 ,6,0,0.,4.8,0.,4.8,0.,4.8,0.,4.8
1981-08-24 09:25:55.360 ,6,0,0.,4.8,0.,4.8,0.,4.8,0.,4.8
1981-08-24 09:26:00.160 ,6,0,0.,4.8,0.,4.8,0.,4.8,0.,4.8
1981-08-24 09:26:04.960 ,6,0,0.,4.8,0.,4.8,0.,4.8,0.,4.8
1981-08-24 09:26:09.760 ,6,0,0.,4.8,0.,4.8,0.,4.8,0.,4.8
1981-08-24 09:26:14.560 ,6,0,0.,4.8,0.,4.8,0.,4.8,0.,4.8
1981-08-24 09:26:19.360 ,6,0,0.,4.8,0.,4.8,0.,4.8,0.,4.8
1981-08-24 09:26:24.160 ,5,0,0.,4.8,0.,4.8,0.,4.8,0.,4.8
1981-08-24 09:26:28.960 ,5,0,0.,4.8,0.,4.8,0.,4.8,0.,4.8
1981-08-24 09:26:33.760 ,5,0,0.,4.8,0.,4.8,0.,4.8,0.,4.8
1981-08-24 09:26:38.560 ,5,0,0.,4.8,0.,4.8,0.,4.8,0.,4.8
1981-08-24 09:26:43.360 ,5,0,0.,4.8,0.,4.8,0.,4.8,0.,4.8
1981-08-24 09:26:48.160 ,5,0,0.,4.8,0.,4.8,0.,4.8,0.,4.8
1981-08-24 09:26:52.960 ,5,0,0.,4.8,0.,4.8,0.,4.8,0.,4.8
1981-08-24 09:26:57.760 ,5,0,0.,4.8,0.,4.8,0.,4.8,0.,4.8
1981-08-24 09:27:02.560 ,5,0,0.,4.8,0.,4.8,0.,4.8,0.,4.8
1981-08-24 09:27:07.360 ,5,0,0.,4.8,0.,4.8,0.,4.8,0.,4.8
1981-08-24 09:27:12.160 ,4,0,0.,4.8,0.,4.8,0.,4.8,0.,4.8
1981-08-24 09:27:16.960 ,4,0,0.,4.8,0.,4.8,0.,4.8,0.,4.8
1981-08-24 09:27:21.760 ,4,0,0.,4.8,0.,4.8,0.,4.8,0.,4.8
1981-08-24 09:27:26.560 ,4,0,0.,4.8,0.,4.8,0.,4.8,0.,4.8
1981-08-24 09:27:31.360 ,4,0,0.,4.8,0.,4.8,0.,4.8,0.,4.8
1981-08-24 09:27:36.160 ,4,0,0.,4.8,0.,4.8,0.,4.8,0.,4.8
1981-08-24 09:27:40.960 ,4,0,0.,4.8,0.,4.8,0.,4.8,0.,4.8
1981-08-24 09:27:45.760 ,4,0,0.,4.8,0.,4.8,0.,4.8,0.,4.8
1981-08-24 09:27:50.560 ,4,0,0.,4.8,0.,4.8,0.,4.8,0.,4.8
1981-08-24 09:27:55.360 ,4,0,0.,4.8,0.,4.8,0.,4.8,0.,4.8
1981-08-24 09:28:00.160 ,3,0,0.,4.8,0.,4.8,0.,4.8,0.,4.8
1981-08-24 09:28:04.960 ,3,0,0.,4.8,0.,4.8,0.,4.8,0.,4.8
1981-08-24 09:28:09.760 ,3,0,0.,4.8,0.,4.8,0.,4.8,0.,4.8
1981-08-24 09:28:14.560 ,3,0,0.,4.8,0.,4.8,0.,4.8,0.,4.8
1981-08-24 09:28:19.360 ,3,0,0.,4.8,0.,4.8,0.,4.8,0.,4.8
1981-08-24 09:28:24.160 ,3,0,0.,4.8,0.,4.8,0.,4.8,0.,4.8
1981-08-24 09:28:28.960 ,3,0,0.,4.8,0.,4.8,0.,4.8,0.,4.8
1981-08-24 09:28:33.760 ,3,0,0.,4.8,0.,4.8,0.,4.8,0.,4.8
1981-08-24 09:28:38.560 ,3,0,0.,4.8,0.,4.8,0.,4.8,0.,4.8
1981-08-24 09:28:43.360 ,3,0,0.,4.8,0.,4.8,0.,4.8,0.,4.8
1981-08-24 09:29:36.160 ,0,0,0.,4.8,0.,4.8,0.,4.8,0.,4.8
1981-08-24 09:29:40.960 ,0,0,0.,4.8,0.,4.8,0.,4.8,0.,4.8
1981-08-24 09:29:45.760 ,0,0,0.,4.8,0.,4.8,0.,4.8,0.,4.8
1981-08-24 09:29:50.560 ,0,0,0.,4.8,0.,4.8,0.,4.8,0.,4.8
1981-08-24 09:29:55.360 ,0,0,0.,4.8,0.,4.8,0.,4.8,0.,4.8
1981-08-24 09:30:00.160 ,0,0,0.,4.8,0.,4.8,0.,4.8,0.,4.8
1981-08-24 09:30:04.960 ,0,0,0.,4.8,0.,4.8,0.,4.8,0.,4.8
1981-08-24 09:30:09.760 ,0,0,0.,4.8,0.,4.8,0.,4.8,0.,4.8
1981-08-24 09:30:14.560 ,0,0,0.,4.8,0.,4.8,0.,4.8,0.,4.8
1981-08-24 09:30:19.360 ,0,0,0.,4.8,0.,4.8,0.,4.8,0.,4.8
1981-08-24 09:30:24.160 ,0,0,0.,4.8,0.,4.8,0.,4.8,0.,4.8
1981-08-24 09:30:28.960 ,0,0,0.,4.8,0.,4.8,0.,4.8,0.,4.8
1981-08-24 09:30:33.760 ,0,0,0.,4.8,0.,4.8,0.,4.8,0.,4.8
1981-08-24 09:30:38.560 ,0,0,0.,4.8,0.,4.8,0.,4.8,0.,4.8
1981-08-24 09:30:43.360 ,0,0,0.,4.8,0.,4.8,0.,4.8,0.,4.8
1981-08-24 09:30:48.160 ,0,0,0.,4.8,0.,4.8,0.,4.8,0.,4.8
1981-08-24 09:30:52.960 ,0,0,0.,4.8,0.,4.8,0.,4.8,0.,4.8
1981-08-24 09:30:57.760 ,0,0,0.,4.8,0.,4.8,0.,4.8,0.,4.8
1981-08-24 09:31:02.560 ,0,0,0.,4.8,0.,4.8,0.,4.8,0.,4.8
1981-08-24 09:31:07.360 ,0,0,0.,4.8,0.,4.8,0.,4.8,0.,4.8
1981-08-24 09:31:12.160 ,0,0,0.,4.8,0.,4.8,0.,4.8,0.,4.8
1981-08-24 09:31:16.960 ,0,0,0.,4.8,0.,4.8,0.,4.8,0.,4.8
1981-08-24 09:31:21.760 ,0,0,0.,4.8,0.,4.8,0.,4.8,0.,4.8
1981-08-24 09:31:26.560 ,0,0,0.,4.8,0.,4.8,0.,4.8,0.,4.8
1981-08-24 09:31:31.360 ,0,0,0.,4.8,0.,4.8,0.,4.8,0.,4.8
1981-08-24 09:31:36.160 ,0,0,0.,4.8,0.,4.8,0.,4.8,0.,4.8
1981-08-24 09:31:40.960 ,0,0,0.,4.8,0.,4.8,0.,4.8,0.,4.8
1981-08-24 09:31:45.760 ,0,0,0.,4.8,0.,4.8,0.,4.8,0.,4.8
1981-08-24 09:31:50.560 ,0,0,0.,4.8,0.,4.8,0.,4.8,0.,4.8
1981-08-24 09:31:55.360 ,0,0,0.,4.8,0.,4.8,0.,4.8,0.,4.8
1981-08-24 09:32:00.160 ,1,0,0.,4.8,0.,4.8,0.,4.8,0.,4.8
1981-08-24 09:32:04.960 ,1,0,0.,4.8,0.,4.8,0.,4.8,0.,4.8
1981-08-24 09:32:09.760 ,1,0,0.,4.8,0.,4.8,0.,4.8,0.,4.8
1981-08-24 09:32:14.560 ,1,0,0.,4.8,0.,4.8,0.,4.8,0.,4.8
1981-08-24 09:32:19.360 ,1,0,0.,4.8,0.,4.8,0.,4.8,0.,4.8
1981-08-24 09:32:24.160 ,1,0,0.,4.8,0.,4.8,0.,4.8,0.,4.8
1981-08-24 09:32:28.960 ,1,0,0.,4.8,0.,4.8,0.,4.8,0.,4.8
1981-08-24 09:32:33.760 ,1,0,0.,4.8,0.,4.8,0.,4.8,0.,4.8
1981-08-24 09:32:38.560 ,1,0,0.,4.8,0.,4.8,0.,4.8,0.,4.8
1981-08-24 09:32:43.360 ,1,0,0.,4.8,0.,4.8,0.,4.8,0.,4.8
1981-08-24 09:32:48.160 ,2,0,0.,4.8,0.,4.8,0.,4.8,0.,4.8
1981-08-24 09:32:52.960 ,2,0,0.,4.8,0.,4.8,0.,4.8,0.,4.8
1981-08-24 09:32:57.760 ,2,0,0.,4.8,0.,4.8,0.,4.8,0.,4.8
1981-08-24 09:33:02.560 ,2,0,0.,4.8,0.,4.8,0.,4.8,0.,4.8
1981-08-24 09:33:07.360 ,2,0,0.,4.8,0.,4.8,0.,4.8,0.,4.8
1981-08-24 09:33:12.160 ,2,0,0.,4.8,0.,4.8,0.,4.8,0.,4.8
1981-08-24 09:33:16.960 ,2,0,0.,4.8,0.,4.8,0.,4.8,0.,4.8
1981-08-24 09:33:21.760 ,2,0,0.,4.8,0.,4.8,0.,4.8,0.,4.8
1981-08-24 09:33:26.560 ,2,0,0.,4.8,0.,4.8,0.,4.8,0.,4.8
1981-08-24 09:33:31.360 ,2,0,0.,4.8,0.,4.8,0.,4.8,0.,4.8
1981-08-24 09:33:36.160 ,3,0,0.,4.8,0.,4.8,0.,4.8,0.,4.8
1981-08-24 09:33:40.960 ,3,0,0.,4.8,0.,4.8,0.,4.8,0.,4.8
1981-08-24 09:33:45.760 ,3,0,0.,4.8,0.,4.8,0.,4.8,0.,4.8
1981-08-24 09:33:50.560 ,3,0,0.,4.8,0.,4.8,0.,4.8,0.,4.8
1981-08-24 09:33:55.360 ,3,0,0.,4.8,0.,4.8,0.,4.8,0.,4.8
1981-08-24 09:34:00.160 ,3,0,0.,4.8,0.,4.8,0.,4.8,0.,4.8
1981-08-24 09:34:04.960 ,3,0,0.,4.8,0.,4.8,0.,4.8,0.,4.8
1981-08-24 09:34:09.760 ,3,0,0.,4.8,0.,4.8,0.,4.8,0.,4.8
1981-08-24 09:34:14.560 ,3,0,0.,4.8,0.,4.8,0.,4.8,0.,4.8
1981-08-24 09:34:19.360 ,3,0,0.,4.8,0.,4.8,0.,4.8,0.,4.8
1981-08-24 09:34:00.160 ,3,0,0.,4.8,0.,4.8,0.,4.8,0.,4.8
1981-08-24 09:34:04.960 ,3,0,0.,4.8,0.,4.8,0.,4.8,0.,4.8
1981-08-24 09:34:09.760 ,3,0,0.,4.8,0.,4.8,0.,4.8,0.,4.8
1981-08-24 09:34:14.560 ,3,0,0.,4.8,0.,4.8,0.,4.8,0.,4.8
1981-08-24 09:34:19.360 ,3,0,0.,4.8,0.,4.8,0.,4.8,0.,4.8
1981-08-24 09:34:24.160 ,4,0,0.,4.8,0.,4.8,0.,4.8,0.,4.8
1981-08-24 09:34:28.960 ,4,0,0.,4.8,0.,4.8,0.,4.8,0.,4.8
1981-08-24 09:34:33.760 ,4,0,0.,4.8,0.,4.8,0.,4.8,0.,4.8
1981-08-24 09:34:38.560 ,4,0,0.,4.8,0.,4.8,0.,4.8,0.,4.8
1981-08-24 09:34:43.360 ,4,0,0.,4.8,0.,4.8,0.,4.8,0.,4.8
1981-08-24 09:34:48.160 ,4,0,0.,4.8,0.,4.8,0.,4.8,0.,4.8
1981-08-24 09:34:52.960 ,4,0,0.,4.8,0.,4.8,0.,4.8,0.,4.8
1981-08-24 09:34:57.760 ,4,0,0.,4.8,0.,4.8,0.,4.8,0.,4.8
1981-08-24 09:35:02.560 ,4,0,0.,4.8,0.,4.8,0.,4.8,0.,4.8
1981-08-24 09:35:07.360 ,4,0,0.,4.8,0.,4.8,0.,4.8,0.,4.8
1981-08-24 09:35:12.160 ,5,0,0.,4.8,0.,4.8,0.,4.8,0.,4.8
1981-08-24 09:35:16.960 ,5,0,0.,4.8,0.,4.8,0.,4.8,0.,4.8
1981-08-24 09:35:21.760 ,5,0,0.,4.8,0.,4.8,0.,4.8,0.,4.8
1981-08-24 09:35:26.560 ,5,0,0.,4.8,0.,4.8,0.,4.8,0.,4.8
1981-08-24 09:35:31.360 ,5,0,0.,4.8,0.,4.8,0.,4.8,0.,4.8
1981-08-24 09:35:36.160 ,5,0,0.,4.8,0.,4.8,0.,4.8,0.,4.8
1981-08-24 09:35:40.960 ,5,0,0.,4.8,0.,4.8,0.,4.8,0.,4.8